Tracking 19176 objects as of 25-May-2018
HD Live streaming from Space Station
objects crossing your sky now

PERSEUS M2

Track PERSEUS M2 now!
10-day predictions
PERSEUS M2 is classified as:


NORAD ID: 40037
Int'l Code: 2014-033AD
Perigee: 607.4 km
Apogee: 625.5 km
Inclination: 97.9 °
Period: 96.9 minutes
Semi major axis: 6987 km
RCS: Unknown
Launch date: June 19, 2014
Source: Commonwealth of Independent States (former USSR) (CIS)
Launch site: Orenburg, Russia (OREN)
Uplink (MHz):
Downlink (MHz): 400.190/400.221
Beacon (MHz):
Mode: 9600bps GFSK
Call sign:
Status:

aabbcc
Your satellite tracking list
Your tracking list is empty




NASA's NSSDC Master Catalog

Two Line Element Set (TLE):
1 40037U 14033AD  18144.72221347  .00000068  00000-0  13975-4 0  9994
2 40037  97.9008  56.5075 0012949 266.6609  93.3125 14.86354199213040
Source of the keplerian elements: AFSPC